Regional Weather Roundup
Issued by NWS

Home | Current Version | Previous Version | Graphics & Text | Print | Product List | Glossary On
Versions: 1 2 3 4 5 6 7 8 9 10 11 12 13 14 15 16 17 18 19 20 21 22 23 24 25 26 27 28 29 30 31 32 33 34 35 36 37 38 39 40 41 42 43 44 45 46 47 48 49 50
000
ASUS44 KMEG 300400
RWRTN
TENNESSEE HOURLY STATE WEATHER ROUNDUP
NATIONAL WEATHER SERVICE MEMPHIS TN
1100 PM CDT MON AUG 29 2016

TNZ002-004-019-021-049-052-054-088>092-300500-
WEST TENNESSEE

CITY           SKY/WX    TMP DP  RH WIND       PRES   REMARKS
MEMPHIS INTL   PTCLDY    86  72  62 E8        30.08R HX  92
NWS MEMPHIS      N/A     81 N/A N/A MISG        N/A
JACKSON        CLEAR     76  75  97 CALM      30.10S
DYERSBURG      CLEAR     79  73  83 MISG      30.09
UNION CITY     CLEAR     81  77  89 CALM      30.10R
PARIS          CLEAR     77  73  88 CALM      30.12S
LEXINGTON      CLEAR     75  73  94 CALM      30.10R
$$

TNZ008-025-027-028-033-062-065-066-300500-
NORTH MIDDLE TENNESSEE

CITY           SKY/WX    TMP DP  RH WIND       PRES   REMARKS
NASHVILLE      CLEAR     81  73  76 NE8       30.12R
CLARKSVILLE    CLEAR     78  73  84 NE5       30.12R
COOKEVILLE     CLEAR     73  73 100 CALM      30.13S
CROSSVILLE     CLEAR     73  70  90 NE5       30.19S
$$

TNZ061-075-076-078-094-096-097-300500-
SOUTH MIDDLE TENNESSEE

CITY           SKY/WX    TMP DP  RH WIND       PRES   REMARKS
WINCHESTER     CLEAR     72  70  94 CALM      30.12S
COLUMBIA       CLEAR    N/A N/A N/A CALM      30.10S
SHELBYVILLE    CLEAR     73  73 100 CALM      30.13R
$$

TNZ017-018-042-046-047-300500-
NORTHEAST TENNESSEE

CITY           SKY/WX    TMP DP  RH WIND       PRES   REMARKS
TRI CITIES     CLEAR     72  67  84 CALM      30.17R
$$

TNZ012-013-036-069-073-074-300500-
CENTRAL EAST TENNESSEE

CITY           SKY/WX    TMP DP  RH WIND       PRES   REMARKS
KNOXVILLE      NOT AVBL
GATLINBURG     CLEAR     72  64  78 CALM      30.12S
$$

TNZ083-085-099-300500-
SOUTHEAST TENNESSEE

CITY           SKY/WX    TMP DP  RH WIND       PRES   REMARKS
CHATTANOOGA    CLEAR     76  69  79 CALM      30.10R
$$

SKY/WX REPORTED AS FAIR MEANS FEW OR NO CLOUDS BELOW
12 THOUSAND FEET.





USA.gov is the U.S. government's official web portal to all federal, state and local government web resources and services.